Location: Austin
(30.3000°N, 97.7500°W)
Time: 02:29:25
(UTC-05:00)

Cosmos 1980 - Pass Details

Date: 15 May 2024
Orbit: 840 x 845 km, 71.0° (Epoch: 29 May)

Event Time Altitude Azimuth Distance (km) Brightness Sun altitude
Rises 20:56:32 0° 178° (S) 3,378 6.5 -8.2°
Reaches altitude 10° 20:59:07 10° 170° (S) 2,446 5.8 -8.7°
Maximum altitude 21:04:16 38° 104° (ESE) 1,261 4.2 -9.7°
Drops below altitude 10° 21:09:25 10° 38° (NE) 2,456 6.0 -10.7°
Sets 21:12:00 0° 30° (NNE) 3,394 6.9 -11.2°
